Back to catalog

STARLINK-11432

AliveCommunicationsVLEO
NORAD 62882·PAYLOAD·🇺🇸 United States

Launched Feb 4, 2025 from Cape Canaveral Space Force Station

Loading…

Next Passes (next 24 hours)

TLE

FreshSource: CelesTrak SupGP

Epoch: Sep 14, 2026, 21:21 UTC

1 62882C 25024D   26257.89006944 -.00057734  00000+0 -44865-3 0  2575
2 62882  43.0001 121.2375 0001520 273.8295 333.3945 15.70854876    13

Track STARLINK-11432 in real time with AllMySat

Download on the App Store